YAOGAN-32 A (43642 NORAD) Tracking and Keplerian Element Data

This shows tracking and keplerian element data for the satellite.

Feedback or suggestion? Click here.




ElementValue
Catalog43642
NameYAOGAN-32 A
Epoch Orbit431
Epoch Day311.71429721
Epoch Year2018
RAAN2.1821
Inclination98.2767
Eccentricity0.0001276
Argument of Perigee109.3039
Mean Anonmoly250.8294
Mean Motion14.59188431
Decay Rate2.9E-07
L11 43642U 18077A 18311.71429721 .00000029 00000-0 16105-4 0 9997
L22 43642 98.2767 2.1821 0001276 109.3039 250.8294 14.59188431 4317

Live tracking and technical data element details for YAOGAN-32 A (NORAD 43642). YAOGAN-32 A can be tracked NOW for your location showing map with azimuth and elevation plus other details from your city location.

Track the satellite on the map from your city or location and see movement details for azimuth, elevation, latitude, longitude, range, height, and movement on the map or in text.







IsCatalogInMostPopularTable: catalog: 43642, numindb: 16
Update: records affected: 1



GetName: 43642 YAOGAN-32 A

Hit Count: updated at: Tue, 20 Nov 2018 11:48:12 GMT